www.pogodaiklimat.ru

Погода и климат >> Архив погоды >> Россия >> Красноярский край >> Боготол


ПОГОДА в Боготоле

  • Прогноз погоды в Боготоле
  • Монитор погоды в Боготоле

АРХИВ ПОГОДЫ в Боготоле

Время (UTC), дата Ветер
(напр.,м/с)
 
Видим.   Явления Облачность Т
(С)
Тd
(С)
f
(%)
Тe
(С)
Тes
(С)
Комфортность P
(гПа)
Po
(гПа)
Тmin
(С)
Tmax
(С)
R
(мм)
R24
(мм)
S
(см)
12 13.06 ЮЗ 3 20 км 8/3 1000 м
[Cu med, cong Ac trans Ci fib]
+26.1 +9.5 35 +27 +27 жарко 999.5 967.0 +27.3
15 13.06 ЮЗ 3 20 км 8/3 600 м
[Cb cap Ac trans Ci fib]
+22.4 +9.6 44 +24 +24 комфорт 1000.1 967.2
18 13.06 Ю 2 20 км 8/3 600 м
[Cb cap Ac trans]
+16.6 +11.4 71 +17 +17 1001.0 967.4
21 13.06 Ю 2 10 км дымка 8/3 600 м
[Cb cap Ac trans]
+15.3 +14.8 97 +15 +15 999.4 965.7
00 14.06 Ю 4 20 км в посл. час ливневой дождь 8/3 600 м
[Cb cap Ac trans Ci fib]
+19.5 +14.9 75 +21 +22 комфорт 999.0 965.8 +14.9 0.0
03 14.06 СЗ 2 10 км слаб. ливневой дождь 9/9 600 м
[Cb cap]
+14.6 +14.6 100 +14 +15 1001.7 967.9 +14.6
06 14.06 СЗ 1 20 км в посл. час ливневой дождь 10/8 600 м
[Cb cap As op]
+15.0 +14.1 94 +15 +16 1003.4 969.6
09 14.06 СЗ 1 20 км 9/0
[Ac trans Ci fib]
+15.6 +10.0 69 +16 +23 1003.9 970.1
12 14.06 З 1 20 км 8/3 600 м
[Cb cap Ac As Ci fib]
+17.5 +9.2 58 +19 +20 1004.5 970.9 +19.6 0.3
15 14.06 штиль 0 10 км дымка 4/0
[Ac As Ci fib]
+12.6 +12.5 99 +12 +12 1005.4 971.2
18 14.06 В 1 10 км дымка 8/0
[Ac trans Ci fib]
+9.4 +7.5 88 +9 +9 1005.5 970.9
21 14.06 В 1 10 км дымка 8/4 600 м
[Cb cap Ac trans Ci fib]
+11.4 +11.2 99 +11 +11 1004.6 970.3
00 15.06 ЮВ 3 10 км слаб. ливневой дождь 10/8 600 м
[Cb cap As trans]
+12.8 +12.7 99 +11 +11 1004.4 970.3 +8.8 0.5
03 15.06 Ю 1 10 км дымка {ливн. осадки} 8/0
[Ac trans]
+16.6 +13.0 79 +17 +24 1003.5 969.8
06 15.06 штиль 0 10 км слаб. ливневой дождь 10/8 600 м
[Cb cap As op]
+15.7 +15.5 99 +15 +16 1005.1 971.3
09 15.06 СЗ 1 20 км {ливн. осадки} 8/6 600 м
[Cb cap Ac trans]
+16.0 +11.4 74 +17 +20 1006.6 972.7
12 15.06 СЗ 1 20 км {ливн. осадки} 9/5 1000 м
[Cu med, cong Ci fib]
+16.0 +11.4 74 +17 +18 1006.6 973.0 +18.7 2
15 15.06 С 1 20 км 10/8 600 м
[Cb cap As op]
+14.2 +12.4 89 +15 +15 1007.7 973.6
18 15.06 С 1 10 км дымка 8/8 600 м
[Cb cap]
+13.2 +13.1 99 +13 +13 1006.8 972.6
21 15.06 СВ 3 10 км дымка 10/6 600 м
[Cb cap As trans]
+12.7 +12.7 100 +11 +11 1005.4 971.2
00 16.06 В 3 10 км дымка 10/8 600 м
[Cb cap As trans]
+13.2 +13.0 99 +12 +12 1004.1 970.0 +12.7
03 16.06 В 4 10 км дымка 10/8 600 м
[Cb cap As trans]
+16.5 +15.6 94 +16 +16 1002.4 968.8
06 16.06 ЮВ 4 20 км 8/4 1000 м
[Cu hum Ci fib]
+21.1 +17.0 77 +25 +30 комфорт 1001.2 968.2
09 16.06 Ю 3 20 км 8/6 1000 м
[Cu med, cong Ci fib]
+24.2 +14.3 54 +27 +30 жарко 999.8 967.1
12 16.06 ЮЗ 1 20 км 6/3 1000 м
[Cu med, cong Ci fib]
+24.9 +11.8 44 +26 +28 жарко 1000.2 967.5 +25.2
15 16.06 ЮЗ 2
{12}
20 км 8/6 600 м
[Cb cap Ac trans]
+17.8 +10.5 62 +18 +18 1003.4 969.8
18 16.06 ЮЗ 3 20 км 8/8 600 м
[Cb cap]
+16.0 +11.9 77 +16 +16 1004.1 970.3
21 16.06 ЮЗ 4 20 км {ливн. осадки} 10/6 600 м
[Cb cap As op]
+13.3 +11.6 89 +12 +12 1005.2 971.1
00 17.06 ЮЗ 5
{10}
20 км {ливн. осадки} 10/8 600 м
[Cb cap As op]
+11.6 +8.5 81 +9 +9 1007.5 973.1 +11.5 1
03 17.06 ЮЗ 5
{10}
20 км 9/6 600 м
[Cb cap Ac As]
+11.8 +8.9 82 +9 +10 1008.6 974.2
06 17.06 ЮЗ 6-11
{12}
10 км слаб. ливневой дождь 10/8 600 м
[Cb cap As op]
+10.3 +9.5 95 +7 +7 1010.8 976.2
09 17.06 З 3
{11}
20 км {ливн. осадки} 8/3 600 м
[Cb cap Ac trans Ci fib]
+15.3 +5.4 52 +15 +19 1011.2 977.1
12 17.06 ЮЗ 4
{10}
20 км {ливн. осадки} 6/0 2000 м
[Ac trans]
+15.7 +5.2 50 +15 +16 1011.8 977.6 +16.8 0.4
15 17.06 Ю 2
{10}
10 км дымка 3/0 2000 м
[Ac trans]
+11.8 +10.0 89 +11 +11 1013.6 979.0
18 17.06 штиль 0 10 км дымка ясно +8.7 +7.5 92 +8 +8 1013.9 978.9
21 17.06 ЮВ 1 10 км дымка ясно +7.1 +7.0 99 +6 +6 1013.7 978.5
00 18.06 ЮВ 2 10 км дымка 8/0
[Ci fib]
+11.3 +9.3 87 +10 +12 1013.4 978.7 +7.0
03 18.06 ЮВ 4 20 км 8/0
[Ci fib]
+16.8 +6.8 52 +16 +22 1011.9 977.9
06 18.06 ЮВ 6
{11}
20 км 4/3 1000 м
[Cu hum Ci fib]
+20.2 +5.1 37 +21 +25 комфорт 1009.5 975.9
09 18.06 ЮВ 5
{11}
20 км 6/0
[Ci fib]
+21.6 +6.2 37 +22 +27 комфорт 1007.2 973.9
12 18.06 ЮВ 4
{10}
20 км 8/0 2000 м
[Ac trans Ci fib]
+21.6 +6.9 39 +22 +24 комфорт 1005.3 972.1 +22.8
15 18.06 В 2 20 км 9/3 600 м
[Cb cap Ac As Ci fib]
+18.1 +4.1 39 +19 +19 1004.4 970.8
18 18.06 В 2 20 км 8/3 600 м
[Cb cap Ac und]
+16.4 +7.9 57 +17 +17 1002.9 969.2
21 18.06 Ю 2 10 км дымка {ливн. осадки} 8/8 600 м
[Cb cap]
+14.9 +14.6 98 +15 +15 1002.9 969.1
00 19.06 Ю 3 10 км дымка {ливн. осадки} 8/3 600 м
[Cb cap Ac trans Ci fib]
+16.9 +13.3 79 +17 +18 1003.5 969.9 +13.1 0.5
03 19.06 ЮЗ 5-10
{12}
20 км 9/4 600 м
[Cb cap Ac trans Ci fib]
+17.4 +9.9 61 +17 +19 1005.5 971.8
06 19.06 Ю 5-11
{15}
20 км 8/4 600 м
[Cb cap Ac trans Ci fib]
+19.2 +3.9 36 +19 +23 1006.7 973.1
09 19.06 ЮЗ 5-10
{16}
10 км слаб. ливневой дождь 8/5 600 м
[Cb cap Ac trans]
+16.1 +7.7 57 +15 +17 1009.6 975.6
12 19.06 ЮЗ 4
{16}
10 км слаб. ливневой дождь 9/9 600 м
[Cb cap]
+14.4 +13.0 91 +13 +13 1011.8 977.6 +20.2 0.5
15 19.06 Ю 1 20 км {ливн. осадки} 3/0
[Ac lent]
+12.8 +8.9 77 +13 +13 1013.4 978.9
18 19.06 В 1 20 км {ливн. осадки} ясно +8.6 +4.3 74 +8 +8 1015.1 980.0
21 19.06 штиль 0 10 км дымка ясно +6.3 +6.2 99 +5 +5 1016.0 980.6
00 20.06 ЮВ 2 10 км дымка 3/0
[Ci fib]
+12.5 +9.7 83 +12 +14 1016.3 981.7 +5.7 0.4
03 20.06 ЮВ 3 20 км 4/0
[Ac trans]
+18.1 +6.2 46 +18 +25 1015.8 981.8
06 20.06 ЮЗ 2 20 км 8/8 600 м
[Cb cap]
+19.9 +4.4 36 +21 +24 комфорт 1015.4 981.6
09 20.06 З 1 20 км 9/6 600 м
[Cb cap Ac trans Ci fib]
+21.7 +7.5 40 +23 +26 комфорт 1014.9 981.4

 

Местоположение метеостанции Боготол (Красноярский край, Россия): широта 56.23 долгота 89.58 высота над уровнем моря 291 м.

В архиве по умолчанию представлена погода в Боготоле за последнюю неделю. Архивные данные за месяц целиком и за предыдущие месяцы, начиная с января 2011 года, Вы можете получить, выбрав интересующий диапазон дат из раскрывающегося списка и нажав кнопку "Ввод!".


*Определитесь, кто Вы:
робот инопланетянин человек

Внимание! Время в таблицах - всемирное. Для получения местного времени необходимо прибавить поправку, которая равна 7 ч.

Смотрите также архив погоды в соседних городах и на ближайших метеорологических станциях:

Погода в Тюхтете (Красноярский край, Россия) (37 км)
Погода в Назарово (Красноярский край, Россия) (51 км)
Погода в Ачинске (Красноярский край, Россия) (58 км)
Погода в Тяжине (Кемеровская область, Россия) (67 км)
Погода в Большом Улуе (Красноярский край, Россия) (76 км)
Погода в Шарыпово (Красноярский край, Россия) (81 км)
Погода в Тисуле (Кемеровская область, Россия) (96 км)
Погода в Ужуре (Красноярский край, Россия) (105 км)
Погода в Новобирилюссах (Красноярский край, Россия) (110 км)
Погода в Мариинске (Кемеровская область, Россия) (118 км)

Пояснения к столбцам:

Ветер - указаны скорость ветра в м/с - средняя за 10 мин, порывы в срок и между сроками (в фигурных скобках) и направление, откуда дует ветер: С - северный, СВ - северо-восточный, В - восточный, ЮВ - юго-восточный, Ю - южный, ЮЗ - юго-западный, З - западный, СЗ - северо-западный.
Видимость - горизонтальная дальность видимости в метрах или километрах. При видимости от 1 до 10 км при отсутствии осадков обычно наблюдается дымка, при ухудшении видимости до 1 км и менее - туман. В сухую погоду видимость может ухудшаться дымом, пылью или мглою.
Явления - указаны атмосферные явления, наблюдавшиеся в срок или в последний час перед сроком; фигурными скобками обозначены явления, наблюдавшиеся между сроками (за 1-3 часа до срока); квадратными скобками обозначены град или гололедные отложения с указанием их диаметра в мм.
Облачность - указаны через наклонную черту общая и нижняя облачность в баллах и высота нижней границы облаков в метрах; квадратными скобками обозначены формы облаков: Ci - перистые, Cs - перисто-слоистые, Cc - перисто-кучевые, Ac - высококучевые, As - высокослоистые, Sc - слоисто-кучевые, Ns - слоисто-дождевые, Cu - кучевые, Cb - кучево-дождевые. Подробнее классификацию облаков см. в Атласе облаков (PDF).
T - Температура воздуха - температура, измеренная на высоте 2 м над землей.
Td - Температура точки росы - температура, при понижении до которой содержащийся в воздухе водяной пар достигнет насыщения.
f - Относительная влажность воздуха - влажноcть воздуха, измеренная на высоте 2 м над землей.
Te - Эффективная температура - температура, которую ощущает одетый по сезону человек в тени. Характеристика душности погоды. При расчете учитывается влияние влажности воздуха и скорости ветра на теплоощущения человека.
Tes - Эффективная температура на солнце - температура, которую ощущает человек, с поправкой на солнечный нагрев. Характеристика знойности погоды. Зависит от высоты солнца над горизонтом, облачности и скорости ветра. Ночью, в пасмурную погоду, а также при ветре 12 м/с и более поправка равна нулю.
P - Атмосферное давление - приведенное к уровню моря атмосферное давление.
Po - Атмосферное давление - измеренное на уровне метеостанции атмосферное давление.
Tmin - Минимальная температура - минимум температуры воздуха на высоте 2 м над землей.
Tmax - Максимальная температура - максимум температуры воздуха на высоте 2 м над землей.
R - Количество осадков - Количество выпавших осадков за период времени, мм. При наведении курсора мыши на число - период времени, за который выпало указанное количество осадков.
R24 - Количество осадков - Количество выпавших осадков за 24 часа, мм.
S - Снежный покров - Высота снежного покрова, см. При наведении курсора мыши на число - состояние снежного покрова и степень покрытия местности в баллах.